Location: Most
(50.5330°N, 13.6500°E)
Time: 06:11:43
(UTC+01:00)

LilacSat-2 - Visible Passes

Search period start: 25 January 2022 00:00
Search period end: 04 February 2022 00:00
Orbit: 510 x 532 km, 97.5° (Epoch: 24 January)

Date Brightness Start Highest point End Pass type
(mag) Time Alt. Az. Time Alt. Az. Time Alt. Az.
25 Jan ? 05:47:42 10° NNE 05:51:23 50° E 05:55:01 10° S visible
25 Jan ? 18:08:42 10° SW 18:11:10 16° W 18:13:39 10° NW visible
26 Jan ? 05:34:42 10° NNE 05:38:12 36° E 05:41:40 10° SSE visible
26 Jan ? 07:09:14 10° NNW 07:12:12 22° WNW 07:15:08 10° WSW visible
26 Jan ? 17:54:55 10° SW 17:57:56 22° W 18:00:57 10° NW visible
27 Jan ? 05:21:46 10° NE 05:25:00 26° E 05:28:11 10° SSE visible
27 Jan ? 06:55:53 10° N 06:59:10 29° WNW 07:02:26 10° SW visible
27 Jan ? 17:41:21 10° SSW 17:44:42 29° W 17:48:05 10° NNW visible
28 Jan ? 05:08:57 10° NE 05:11:45 20° E 05:14:32 10° SE visible
28 Jan ? 06:42:34 10° N 06:46:06 39° WNW 06:49:36 10° SW visible
28 Jan ? 17:27:54 10° S 17:31:30 40° W 17:35:07 10° NNW visible
29 Jan ? 04:56:20 10° NE 04:58:29 15° E 05:00:39 10° SE visible
29 Jan ? 06:29:20 10° N 06:33:00 54° WNW 06:36:39 10° SSW visible
30 Jan ? 04:44:19 10° ENE 04:45:12 11° E 04:46:04 10° E visible
30 Jan ? 06:16:08 10° N 06:19:53 77° WNW 06:23:37 10° SSW visible
31 Jan ? 06:02:59 10° NNE 06:06:44 76° ESE 06:10:28 10° S visible
31 Jan ? 18:25:23 10° WSW 18:26:41 11° W 18:27:58 10° WNW visible
01 Feb ? 05:49:53 10° NNE 05:53:34 53° E 05:57:14 10° S visible
01 Feb ? 18:11:03 10° SW 18:13:23 16° W 18:15:42 10° NW visible
02 Feb ? 05:36:51 10° NNE 05:40:22 38° E 05:43:53 10° SSE visible
02 Feb ? 17:57:12 10° SW 18:00:07 21° W 18:03:02 10° NW visible
03 Feb ? 05:23:53 10° NE 05:27:09 28° E 05:30:24 10° SSE visible
03 Feb ? 06:58:03 10° N 07:01:17 28° WNW 07:04:31 10° SW visible
03 Feb ? 17:43:35 10° SSW 17:46:52 28° W 17:50:10 10° NW visible
